Location: Gull Harbor
(47.1000°N, 122.9000°W)
Time: 18:23:26
(UTC-07:00)

X-37B - Visible Passes

Search period start: 24 September 2022 00:00
Search period end: 04 October 2022 00:00
Orbit: 330 x 340 km, 45.0° (Epoch: 02 September)

Date Brightness Start Highest point End Pass type
(mag) Time Alt. Az. Time Alt. Az. Time Alt. Az.
24 Sep 2.1 06:23:40 10° SW 06:26:08 26° SSE 06:28:37 10° E visible
25 Sep 2.9 05:11:19 14° SSE 05:11:24 14° SSE 05:13:03 10° ESE visible
26 Sep 1.9 05:30:59 24° S 05:31:34 26° SSE 05:34:03 10° E visible
27 Sep 1.1 05:50:36 25° SW 05:51:51 42° SSE 05:54:36 10° E visible
28 Sep 3.5 04:38:59 13° ESE 04:38:59 13° ESE 04:39:28 10° E visible
28 Sep 0.7 06:10:12 17° WSW 06:12:12 55° S 06:15:02 10° E visible
29 Sep 2.5 04:58:33 25° ESE 04:58:33 25° ESE 05:00:02 10° E visible
29 Sep 0.7 06:29:47 10° W 06:32:35 54° S 06:35:25 10° ESE visible
30 Sep 1.1 05:18:09 46° SE 05:18:09 46° SE 05:20:28 10° E visible
01 Oct 0.5 05:37:45 51° SSW 05:38:01 54° S 05:40:50 10° ESE visible
02 Oct 1.0 05:57:25 29° WSW 05:58:21 40° SSW 06:01:06 10° ESE visible
03 Oct 3.5 04:45:53 13° ESE 04:45:53 13° ESE 04:46:16 10° ESE visible
03 Oct 1.8 06:17:07 16° WSW 06:18:38 24° SSW 06:21:03 10° SE visible
